TimeFrame on Redefined Productions
Outwar Torax TimeFrame

Torax TimeFrame

97 Gods Updated: 2019-10-19 23:20:02
NameTime LeftWindow Opens
Jade Dragonite1d 03:072019-10-18 19:59:00
Old World Drake0d 23:152019-10-18 23:51:00
Kro Shuk, Doomslayer0d 20:092019-10-19 02:57:00
Crantos, Defender of Ultimation0d 16:142019-10-19 06:52:00
Brutalitar, Lord of the Underworld0d 12:462019-10-19 10:20:00
Quiver, The Renegade0d 11:372019-10-19 11:29:00
Lord Sibannac0d 11:052019-10-19 12:01:00
Crolvak, the Fire Master0d 09:582019-10-19 13:08:00
Zikkir the Dark Archer0d 09:312019-10-19 13:35:00
Lady Ariella0d 09:182019-10-19 13:48:00
Dreg nor, Keeper of the Infernal Essence0d 08:592019-10-19 14:07:00
Animated Captain0d 08:592019-10-19 14:07:00
Synge, The Red Dragon0d 08:392019-10-19 14:27:00
Freezebreed, The Frozen Manipulator0d 08:382019-10-19 14:28:00
Murderface0d 06:592019-10-19 16:07:00
The Emerald Assassin0d 06:552019-10-19 16:11:00
Felroc, Overseer of Hellfire0d 05:202019-10-19 17:46:00
Sarcrina the Astral Priestess0d 05:062019-10-19 18:00:00
Bloodchill the Grizzly0d 04:142019-10-19 18:52:00
Windstrike The Vile0d 03:102019-10-19 19:56:00
Jorun the Blazing Swordsman0d 03:052019-10-19 20:01:00
Raiyar, the Shadow Master0d 00:532019-10-19 22:13:00
Bolkor, the Holy Master0d 00:182019-10-19 22:48:00
Dlanod, the Crazed Chancellor0d 00:082019-10-19 23:15:00
Melt Bane, The Forbidden Demon Dragon0d 02:262019-10-20 01:33:00
Lord Varan0d 02:512019-10-20 01:58:00
Ancient Magus Tarkin0d 02:532019-10-20 02:00:00
Gnorb0d 04:052019-10-20 03:12:00
Pinosis0d 04:062019-10-20 03:13:00
Garland, The Lord Keeper0d 05:262019-10-20 04:33:00
Crane0d 05:382019-10-20 04:45:00
Traxodon the Plaguebringer0d 06:162019-10-20 05:23:00
Jazzmin, Maiden of Vitality0d 09:192019-10-20 08:26:00
Amalgamated Apparition0d 10:222019-10-20 09:29:00
Ormsul the Putrid0d 10:422019-10-20 09:49:00
Gorganus of the Wood0d 13:092019-10-20 12:16:00
Volgan the Living Ironbark0d 13:142019-10-20 12:21:00
Baron Mu, Dark Rider of the Undead0d 14:172019-10-20 13:24:00
Lord Narada0d 14:202019-10-20 13:27:00
Ebliss, Fallen Angel of Despair0d 14:212019-10-20 13:28:00
Anguish0d 14:252019-10-20 13:32:00
Emperor Neudeus, Controller of the Universe0d 15:072019-10-20 14:14:00
King Ashnar, Lord of the Unliving0d 15:582019-10-20 15:05:00
Samatha Dark-Soul0d 16:082019-10-20 15:15:00
Rotborn, Eater of the Dead0d 17:002019-10-20 16:07:00
Howldroid, Tormentor of the Pit0d 21:162019-10-20 20:23:00
Varsanor, Master of Darkness0d 22:162019-10-20 21:23:00
Detox0d 23:362019-10-20 22:43:00
Anvilfist0d 23:572019-10-20 23:04:00
Karvaz, Lord of Alsayic1d 00:092019-10-20 23:16:00
Nar Zhul, Slayer of All1d 00:132019-10-20 23:20:00
Lacuste of the Swarm1d 01:232019-10-21 00:30:00
Tylos, The Lord Master1d 01:432019-10-21 00:50:00
Rancid, Lord of Thugs1d 01:512019-10-21 00:58:00
Skybrine The Inescapable1d 02:122019-10-21 01:19:00
Terrance, Rebel of Rallis1d 03:082019-10-21 02:15:00
Great Lord Ganeshan1d 05:552019-10-21 05:02:00
Nessam1d 07:252019-10-21 06:32:00
Tsort1d 07:272019-10-21 06:34:00
Lord Suka1d 10:052019-10-21 09:12:00
Sigil, Lich of Woe1d 10:372019-10-21 09:44:00
Hackerphage, Protector of the Gateway1d 13:202019-10-21 12:27:00
Numerocure, The Black Messenger of Evil1d 13:522019-10-21 12:59:00
Nayark the Mummified Sorcerer1d 17:142019-10-21 16:21:00
Akkel the Enflamed Warrior1d 17:472019-10-21 16:54:00
Sylvanna TorLai1d 19:272019-10-21 18:34:00
Threk, King of Lords1d 19:462019-10-21 18:53:00
Smoot the Yeti1d 20:132019-10-21 19:20:00
Lady Chaos, Queen of the Abyss1d 23:492019-10-21 22:56:00
Ganja the Stone Golem1d 23:532019-10-21 23:00:00
Zertan, The Collector2d 02:222019-10-22 01:29:00
Grivvek, Protector of the Brood2d 02:352019-10-22 01:42:00
Archdevil Yirkon2d 05:322019-10-22 04:39:00
Dexor, Victor of Veldara2d 08:222019-10-22 07:29:00
Lord Xordam2d 09:472019-10-22 08:54:00
Slashbrood, Devourer of the Blackness2d 13:422019-10-22 12:49:00
Ag Nabak the Abomination2d 20:172019-10-22 19:24:00
Keeper of Nature2d 21:002019-10-22 20:07:00
Skarthul the Avenged2d 21:262019-10-22 20:33:00
Straya, the Underworld Ruler3d 00:412019-10-22 23:48:00
Xynak, the Arcane Master3d 03:342019-10-23 02:41:00
Kretok, Descendant of Nature3d 08:222019-10-23 07:29:00
Esquin, the Kinetic Master3d 17:112019-10-23 16:18:00
Nafir, God of Desolation3d 17:572019-10-23 17:04:00
Balerion, Dragon of Dread4d 03:492019-10-24 02:56:00
Viserion, the Necrodragon4d 05:342019-10-24 04:41:00
Q-SEC Commander4d 15:092019-10-24 14:16:00
Shaik, Servant of Arkron183d 03:582019-04-19 19:08:00
Rook, Hand of Arkron183d 02:222019-04-19 20:44:00
Gregov, Knight of the Woods38d 06:102019-09-11 16:56:00
Noxious Slug9d 18:312019-10-10 04:35:00
Beast of Cards9d 11:262019-10-10 11:40:00
Hyrak, Bringer of Nightmares3d 14:542019-10-16 08:12:00
Vitkros, Hydra of the Deep2d 22:542019-10-17 00:12:00
Wanhiroeaz the Devourer2d 21:522019-10-17 01:14:00
Mistress of the Sword2d 03:572019-10-17 19:09:00
Shadow1d 08:492019-10-18 14:17:00